Etusivu
METAR-TAF:

METAR-TAF

Lentoasemat :

Willmar Municipal Airport (John L. Rice Field)

Willmar, Minnesota, Yhdysvallat

Leveyspiiri: 45-07N, Pituuspiiri: 095-05W, korkeus merenpinnasta: 344 m

Tämänhetkinen sää

Tämä raportti tehtiin 30 minuuttia sitten, kello 15.56 UTC
Tuuli 11 kn kaakosta
Lämpötila 2°C
Kosteus 93%
Ilmanpaine 1006 hPa
Näkyvyys: 11.3 km
Pilvistä 400 ft:n korkeudessa

METAR: KBDH 181556Z AUTO 14011KT 7SM OVC004 02/01 A2970 RMK AO2

Aika: 10:26 (16:26 UTC)


TAF: puuttuu

Säähavainnot ja -ennusteet yli 4000 lentoasemalta (METAR- ja TAF-raportit).

Käytössä olevat sääasemat on merkitty karttaan keltaisilla ja punaisilla pisteillä.

Aseta hiiri pisteen päälle nähdäksesi sääaseman nimen.

Klikkaa sitten nähdäksesi säähavainnot ja -ennusteet.

Kartan vaihtaminen: klikkaa mustalla rastilla varustettuja vihreitä pisteitä, niin voit zoomata sisään; viivalla varustettua vihreää pistettä, niin voit zoomata ulos tai vihreitä nuolia, niin pääset viereisille kartoille.


METAR-TAF: